COSMOS 374 DEB

Satellite information

Favourite Embed

Satellite Type and Status

DEBRISIN ORBIT

Key statistics

Satellite COSMOS 374 DEB at a glance.

Uptime

20148

Days in orbit

Revolutions

≈ 12.9

Per day

Orbit

MEO

Medium Earth Orbit

Inclination

63.0

Latest

Satellite identification and parameters

Extended collection of information and parameters for COSMOS 374 DEB.

Object identification

Identified? True

Debris? True

Object name: COSMOS 374 DEB

International designator: 1970-089L

Object number (NORAD): 4668

Object ID (CCSDS): 4668

Country: COMMONWEALTH OF INDEPENDENT STATES (CIS)

Current information (Y/N): Y

RCS size: SMALL

Orbital parameters

Period: 111.88 minutes

Inclination: 62.9822 deg

SMA: 7691.227 km

Apoapsis: 2030.464 km

Periapsis: 595.72 km

RAAN: 326.7842 deg

Eccentricy: 0.09327148

Argument of periapsis: 310.421 deg

Mean anomaly: 41.8935 deg

Mean motion: 12.87091216 rev/day

Mean motion (dot): 0.00000086 rev/day2

B* drag term: 0.000097556593 1/REarth

Two-line elements (TLE)

Creation date: Dec. 21, 2025, 3:42 a.m.

Reference frame: TEME

Reference center: EARTH

Epoch: Dec. 20, 2025, 9:06 p.m. UTC

TLE line 0: 0 COSMOS 374 DEB

TLE line 1: 1 04668U 70089L 25354.87944628 .00000086 00000-0 97557-4 0 9996

TLE line 2: 2 04668 62.9822 326.7842 0932715 310.4210 41.8935 12.87091216586674

Live tracking on map

Real-time ground track for satellite COSMOS 374 DEB.

In-orbit conjunctions

A list of the most updated potential collisions computed for object COSMOS 374 DEB.

Target Orbit TCA Probability of collision Miss distance Type
FENGYUN 1C DEB SSO 2024-09-27 10:47:41 0.0001999837 414.0 (m) DEBRIS

Associated space launch

The I2P satellites were the first soviet coorbital ASAT system.

COSMOS 374 DEB was lifted into orbit during the mission ‘Tsiklon-2 | I2P 4’, on board a Tsiklon-2 space rocket.

The launch took place on Oct. 23, 1970, 4:42 a.m. from 90/20.

For more information about the launch, click the button.

Launch to space Tsiklon-2 | I2P 4
Tsiklon-2 | I2P 4

Agency: N/A

Status: Launch Successful

Launch date: Oct. 23, 1970, 4:42 a.m. UTC

Rocket: Tsiklon-2

Launch pad: 90/20

Location: Baikonur Cosmodrome, Republic of Kazakhstan

...

Latest news about this satellite

There are no fresh news available about this satellite. Check back as we update our databases every day.


Newsletter sign-up

Weekly statistics, charts and insights to help you stay on top of the space industry.